World > North America > United States > New York

Hourly Merrillsville, NY Regional Weather

Feedback E-mail the Weather

Latest News

Merrillsville, NY Weather Maps

°F °C°F °C
Merrillsville Weather Map
UTC Time: 5/27/2022, 22:22
Your Time:

Merrillsville, NY Regional Weather

Expires:202205272300;;668716
ASUS41 KBGM 272210
RWRBGM

REGIONAL WEATHER ROUNDUP
NATIONAL WEATHER SERVICE BINGHAMTON NY
600 PM EDT FRI MAY 27 2022

Note: "fair" indicates few or no clouds below 12,000 feet with no
significant weather and/or obstructions to visibility.

* = Station(s) that does not report precipitation, such as rain, 
snow, etc, also no thunder or fog.


NYZ009-015>018-022>025-036-037-044>046-055>057-062-272300
...Central New York...
  
CITY           SKY/WX    TMP DP  RH WIND       PRES   REMARKS
Binghamton     PTSUNNY   66  63  90 SW13G20   29.73R                  
Cortland       CLOUDY    68  63  83 S13       29.70S                  
Dansville      MOSUNNY   73  64  73 NE3       29.71R                  
Elmira         PTSUNNY   73  64  73 W10       29.69R                  
Endicott       CLEAR     70  66  88 SW7       29.70S                  
Ithaca         PTSUNNY   71  66  84 SW14      29.70S                  
Hamilton       PTSUNNY   68  61  77 S9G18     29.70F                  
Monticello     CLOUDY    68  66  93 S13       29.80F                  
Norwich        CLOUDY    68  63  83 S9G16     29.73F                  
Oneonta        SUNNY     66  63  88 S7        29.74F                  
Penn Yan       CLOUDY    69  64  84 NW5       29.71R                  
Rome           CLOUDY    73  65  75 S12       29.67F                  
Seneca Falls   CLOUDY    64  64 100 NW7       29.69S                  
Sidney         SUNNY     70  64  83 S6        29.71S                  
Skaneateles    RAIN      66  66 100 SW6       29.68R                  
Syracuse       LGT RAIN  69  67  93 E5        29.64F                  
$$
 

SKY/WX - Weather  TMP - Temperature  DP - Dew Point  RH - Humidity
WIND - Wind Direction/Speed PRES - Barometric Pressure VSB - Visibility
WCI - Wind Chill Index E13G22 Wind - East Wind 13 mph/Gusts of 22 mph

Trending Headlines

Merrillsville Radar Loop



Merrillsville Quick Facts


National Two Day Weather Forecast


E-mail the Merrillsville Weather Forecast

Voice your opinion or tell us about page issues...